星链-5930 (STARLINK-5930 )

导读

STARLINK-5930是美国SpaceX公司星链星座的第二代低轨卫星,于2023年3月17日由猎鹰9号火箭发射升空,运行在550公里左右的近地轨道。该卫星配备相控阵天线与氩气推进系统,依托星链低轨星座组网,可为全球提供低时延宽带互联网服务,是SpaceX构建全球卫星通信网络的重要组成部分,支持包括远程通信、直连终端等多元应用场景。

Basic Information
目录编号:
55928
目录名称:
STARLINK-5930
国际标识:
2023-037Q
轨道中心:
EARTH
卫星名称:
星链-5930
卫星全名:
星链-5930 (STARLINK-5930 )
卫星状态:
在轨 (已飞行1186 天)
发射日期:
2023-03-17 UTC
国别 :
美国 (US)
星等 :
--
Orbit Information
数据来源 国际轨道数据 AOE轨道数据
星历时间 2026-06-15T04:14:46+0800
6小时前
查看轨道信息
2026-06-15T00:00:00+0800
10小时前
查看轨道信息
半长轴 6950.232km 6950.256km
偏心率 0.0003022 0.0002493
轨道倾角 70.000° 70.001°
近地点辐角 268.377° 294.781°
升交点赤经 59.349° 59.796°
平近点角 91.704° 191.280°
近地点 569.994km 570.386km
远地点 574.196km 573.852km
周期 96.108分钟 96.108分钟
每日圈数 14.983176 14.983097
Detailed Information
固有亮度:
5
最大亮度:
2.5
卫星平台:
Starlink v1.5
覆盖范围:
全球
运营商:
太空探索技术公司
运营商所在国:
美国
制造商(研发单位):
太空探索技术公司
制造商所在国:
美国
使用方式:
暂无
Satellite Introduction
星链(Starlink)计划是由太空探索技术公司(SpaceX)提出的一个巨型低轨卫星互联网星座项目,计划在2019年至2024年间在太空搭建由约1.2万颗卫星组成的“星链”网络,其中1584颗将部署在地球上空550千米处的近地轨道,并从2020年开始工作。该卫星仍在工作。
2D Orbit Map
3D Orbit Map
Orbit Altitude Analysis Chart
Orbit Inclination Analysis Chart
Orbit Comprehensive Analysis Chart
View Comprehensive Chart